2024-173B (61228 NORAD) Tracking and Keplerian Element Data

This shows tracking and keplerian element data for the satellite.

Feedback or suggestion? Click here.




ElementValue
Catalog61228
Name2024-173B
Epoch Orbit284
Epoch Day286.84944602
Epoch Year2024
RAAN359.4594
Inclination97.403
Eccentricity0.0012291
Argument of Perigee208.0817
Mean Anonmoly151.976
Mean Motion15.26022817
Decay Rate0.00042583
L11 61228U 24173B 24286.84944602 .00042583 00000+0 16466-2 0 9991
L22 61228 97.4030 359.4594 0012291 208.0817 151.9760 15.26022817 2841



Live tracking and technical data element details for 2024-173B (NORAD 61228). 2024-173B can be tracked NOW for your location showing map with azimuth and elevation plus other details from your city location.







IsCatalogInMostPopularTable: catalog: 61228, numindb: 24
Update: records affected: 1



GetName: 61228 2024-173B

Hit Count: updated at: Fri, 06 Dec 2024 10:09:23 GMT